This is the latest recevied weather packets stored in our database for station/object K9RCP-20. If no packets are shown the sender has not sent any weather packets the latest 10 day(s).
| Time | Temp. | Humidity | Pressure | Rain* | Wind** | Luminosity | Snow |
|---|---|---|---|---|---|---|---|
| 1778378276 | 26.11° C | 30% | 1011.6 hPa | 0 mm | - | 78 W/m² | - |
| 1778377972 | 26.67° C | 29% | 1011.6 hPa | 0 mm | - | 88 W/m² | - |
| 1778377667 | 26.67° C | 28% | 1011.7 hPa | 0 mm | - | 90 W/m² | - |
| 1778377365 | 26.67° C | 27% | 1011.7 hPa | 0 mm | - | 96 W/m² | - |
| 1778377060 | 26.67° C | 26% | 1011.8 hPa | 0 mm | - | 107 W/m² | - |
| 1778376756 | 26.67° C | 24% | 1011.8 hPa | 0 mm | - | 139 W/m² | - |
| 1778376451 | 27.22° C | 23% | 1012 hPa | 0 mm | - | 142 W/m² | - |
| 1778376146 | 27.22° C | 23% | 1011.9 hPa | 0 mm | - | 155 W/m² | - |
| 1778375841 | 27.22° C | 24% | 1011.9 hPa | 0 mm | - | 130 W/m² | - |
| 1778375537 | 27.22° C | 24% | 1011.9 hPa | 0 mm | - | 120 W/m² | - |
| 1778375234 | 27.22° C | 24% | 1011.9 hPa | 0 mm | - | 129 W/m² | - |
| 1778374930 | 27.78° C | 24% | 1012 hPa | 0 mm | - | 138 W/m² | - |
| 1778374627 | 26.67° C | 23% | 1012 hPa | 0 mm | - | 175 W/m² | - |
| 1778374323 | 27.78° C | 23% | 1012.2 hPa | 0 mm | - | 211 W/m² | - |
| 1778374022 | 27.78° C | 21% | 1012 hPa | 0 mm | - | 235 W/m² | - |
| 1778373719 | 27.78° C | 21% | 1011.9 hPa | 0 mm | - | 175 W/m² | - |
| 1778373416 | 27.78° C | 23% | 1012 hPa | 0 mm | - | 257 W/m² | - |
| 1778373111 | 27.78° C | 24% | 1012.2 hPa | 0 mm | - | 216 W/m² | - |
| 1778372806 | 26.67° C | 24% | 1012.3 hPa | 0 mm | - | 177 W/m² | - |
| 1778372503 | 27.78° C | 25% | 1012.2 hPa | 0 mm | - | 287 W/m² | - |
| 1778372200 | 28.33° C | 24% | 1012.2 hPa | 0 mm | - | 197 W/m² | - |
| 1778371899 | 27.78° C | 23% | 1012.3 hPa | 0 mm | - | 293 W/m² | - |
| 1778371598 | 26.67° C | 26% | 1012.3 hPa | 0 mm | - | 364 W/m² | - |
| 1778371296 | 26.67° C | 25% | 1012.6 hPa | 0 mm | - | 401 W/m² | - |
| 1778370992 | 26.11° C | 27% | 1012.5 hPa | 0 mm | - | 321 W/m² | - |
* Rain latest hour (hover to see other rain measurements)
** Current wind speed in m/s (hover to see current wind gust speed)